Regional Weather Roundup
Issued by NWS

Home | Current Version | Previous Version | Text Only | Print | Product List | Glossary Off
Versions: 1 2 3 4 5 6 7 8 9 10 11 12 13 14 15 16 17 18 19 20 21 22 23 24 25 26 27 28 29 30 31 32 33 34 35 36 37 38 39 40 41 42 43 44 45 46 47 48 49 50

000
ASUS43 KLOT 272010
RWRIL

ILLINOIS REGIONAL WEATHER ROUNDUP
NATIONAL WEATHER SERVICE CHICAGO/ROMEOVILLE IL
200 PM CST TUE JAN 27 2015

NOTE: "FAIR" INDICATES FEW OR NO CLOUDS BELOW 12,000 FEET WITH NO
SIGNIFICANT WEATHER AND/OR OBSTRUCTIONS TO VISIBILITY.

* THESE STATIONS ARE NOT UNDER NWS QUALITY CONTROL. THEY ALSO MAY NOT
  REPORT WEATHER SUCH AS PRECIPITATION OR FOG.

ILZ001-002-007-009-015-016-024-272100-
NORTHWEST ILLINOIS

CITY           SKY/WX    TMP DP  RH WIND       PRES   REMARKS
MOLINE         CLOUDY    30  22  72 NE3       30.20R
STERLING*      CLOUDY    28  25  86 CALM      30.19S
SAVANNA*       CLOUDY    29  23  76 CALM      30.20S
$$

ILZ003-004-008-010-011-017-018-272100-
NORTH CENTRAL ILLINOIS

CITY           SKY/WX    TMP DP  RH WIND       PRES   REMARKS
ROCKFORD       CLOUDY    31  23  72 N5        30.20R WCI  26
FREEPORT*      CLOUDY    28  25  86 CALM      30.20S FOG
ROCHELLE*      CLOUDY    29  24  81 NE3       30.19S
DE KALB*       CLOUDY    28  23  79 NE5       30.18R WCI  23
PERU*          CLOUDY    31  27  85 N5        30.19S WCI  26
$$

ILZ005-006-012>014-019>023-272100-
NORTHEAST ILLINOIS

CITY           SKY/WX    TMP DP  RH WIND       PRES   REMARKS
CHICAGO-OHARE  MOSUNNY   31  18  58 NE7       30.17R WCI  24
CHICAGO-MIDWAY MOSUNNY   32  20  61 NE8       30.18R WCI  25
AURORA         CLOUDY    31  22  69 N8        30.18R WCI  23
LANSING*       MOSUNNY   31  18  58 N9        30.18R WCI  23
JOLIET*        PTSUNNY   32  21  64 N6        30.18R WCI  26
WAUKEGAN       SUNNY     29  17  61 N7        30.18R WCI  22
DUPAGE AIRPORT MOSUNNY   31  20  63 NE5       30.16S WCI  26
KANKAKEE*      MOSUNNY   30  19  63 NE5       30.18R WCI  25
WHEELING       SUNNY     30  17  58 NE8       30.20R WCI  22
MORRIS*        CLOUDY    32  25  76 N5        30.18R WCI  27
ROMEOVILLE*    SUNNY     32  21  64 N9        30.17S WCI  24
NORTHERLY ISL    N/A     29  19  66 NE9         N/A  WCI  21
$$

LMZ740>746-272100-
SOUTHERN LAKE MICHIGAN

STATION/POSITION SKY/WX   TEMP    WIND        PRES    VSBY  WAVE
                          AIR SEA DIR/SP/G                  HT/PER
                          (F)     (DEG/KT/KT) (MB)    (MI)  (FT/S)
WAUKEGAN HARBOR            28      30/ 10/ 13   N/A
HARRISON CRIB              27      10/  9/ 10   N/A
BURNHAM HARBOR             29      10/  6/ 11   N/A
CALUMET HARBOR             29      20/  7/ 10   N/A
MICHIGAN CITY              27     350/ 11/ 12   N/A
$$

ILZ025>027-034>036-040-047-049-050-058-095>099-272100-
WEST-CENTRAL ILLINOIS

CITY           SKY/WX    TMP DP  RH WIND       PRES   REMARKS
QUINCY         CLOUDY    38  31  76 NE9       30.16S WCI  31
GALESBURG*     CLOUDY    29  25  87 N7        30.19R WCI  22
MACOMB*        CLOUDY    31  27  87 NE6       30.21R WCI  25
JACKSONVILLE*  CLOUDY    36  29  76 N6        30.17S WCI  31
PITTSFIELD*    PTSUNNY   41  32  69 NE6       30.16S
$$

ILZ028>032-037-038-041>044-048-051>054-059>061-272100-
CENTRAL ILLINOIS

CITY           SKY/WX    TMP DP  RH WIND       PRES   REMARKS
PONTIAC        CLOUDY    31  28  88 NE3       30.18S FOG
BLOOMINGTON    PTSUNNY   31  27  85 NE8       30.17R WCI  24
DECATUR        CLOUDY    33  28  81 NE9       30.16R WCI  25
PEORIA         CLOUDY    32  25  75 VRB5      30.19R WCI  27
LACON*         CLOUDY    30  24  79 NE5       30.18S WCI  25
LINCOLN*       CLOUDY    34  29  82 N7        30.18S WCI  28
SPRINGFIELD    CLOUDY    33  27  78 N8        30.18R WCI  26
TAYLORVILLE    CLOUDY    32  28  86 N8        30.17S WCI  25
$$

ILZ033-039-045-046-055>057-062-063-272100-
EAST-CENTRAL ILLINOIS

CITY           SKY/WX    TMP DP  RH WIND       PRES   REMARKS
CHAMPAIGN      CLOUDY    31  26  82 N9        30.15S WCI  23
DANVILLE*      CLOUDY    29  21  71 NE8       30.13R WCI  21
RANTOUL*       CLOUDY    32  27  83 N9        30.16R WCI  24
MATTOON        CLOUDY    32  27  81 N9        30.14R WCI  24
PARIS*         CLOUDY    31  28  88 NE3       30.15R
$$

ILZ079-100>102-272100-
SOUTHWEST ILLINOIS

CITY           SKY/WX    TMP DP  RH WIND       PRES   REMARKS
ALTON          PTSUNNY   41  28  60 N12       30.15F
BELLEVILLE     PTSUNNY   43  31  61 N12       30.15R
CAHOKIA*       CLOUDY    44  32  62 N9        30.16R
SPARTA*        CLOUDY    41  32  70 N9        30.15R
$$

ILZ064>066-069>071-074>076-080>082-084>086-088>090-092>094-272100-
SOUTH-CENTRAL ILLINOIS

CITY           SKY/WX    TMP DP  RH WIND       PRES   REMARKS
CARBONDALE     CLOUDY    42  30  62 N10       30.14S
CAIRO*         CLOUDY    47  33  58 NE5       30.14R
EFFINGHAM*     CLOUDY    33  27  77 N5        30.17R WCI  29
MARION         CLOUDY    43  30  61 NW12G20   30.14S
MT. VERNON     CLOUDY    39  27  60 N5        30.14R
CENTRALIA*     CLOUDY    39  29  68 N14       30.14R WCI  30
SALEM*         CLOUDY    41  32  70 N9        30.15R
METROPOLIS*    CLOUDY    44  32  62 N6        30.12S
$$

ILZ067-068-072-073-078-083-087-091-272100-
SOUTHEAST ILLINOIS

CITY           SKY/WX    TMP DP  RH WIND       PRES   REMARKS
LAWRENCEVILLE  CLOUDY    33  30  88 NW9       30.15R WCI  25
FLORA*         CLOUDY    36  30  78 N8        30.15R WCI  30
FAIRFIELD*     CLOUDY    37  30  75 NW6       30.14R WCI  33
HARRISBURG*    CLOUDY    40  32  73 N8        30.15R
ROBINSON*      CLOUDY    32  30  92 N6        30.15S WCI  26
CARMI*         CLOUDY    37  34  87 N7        30.13S WCI  32
$$

ABBREVIATIONS USED IN REMARKS
   TC - TEMPERATURE IN CELSIUS
  WCI - WIND CHILL INDEX
   HX - HEAT INDEX
  VSB - VISIBILITY
$$




USA.gov is the U.S. government's official web portal to all federal, state and local government web resources and services.